Location: El Hornillo
(40.2499°N, 5.1036°W)
Time: 02:50:07
(UTC+00:00)

Cosmos 1606 Rocket - Pass Details

Date: 05 August 2024
Orbit: 599 x 627 km, 82.5° (Epoch: 10 September)

Event Time Altitude Azimuth Distance (km) Brightness Sun altitude
Rises 20:21:02 0° 352° (N) 2,857 7.6 -9.5°
Reaches altitude 10° 20:23:15 10° 352° (N) 1,951 6.7 -9.9°
Maximum altitude 20:27:34 88° 267° (W) 609 3.5 -10.6°
Drops below altitude 10° 20:31:53 10° 175° (S) 1,947 5.7 -11.3°
Enters shadow 20:33:13 - 175° (S) 2,493 6.3 -11.5°
